Weather History for KLMT - April, 2013

Change the Weather History Date:

Tuesday, April 30, 2013

  Actual Average Record
Temperature  
Mean Temperature 43 °F 47 °F  
Max Temperature 59 °F 61 °F 82 °F (1981)
Min Temperature 26 °F 33 °F 19 °F (2011)
Degree Days  
Heating Degree Days 22 18  
Month to date heating degree days 622 657  
Since 1 July heating degree days 6064 6319  
Cooling Degree Days 0 0  
Month to date cooling degree days 0 0  
Year to date cooling degree days 0 0  
Moisture  
Dew Point 14 °F    
Average Humidity 40    
Maximum Humidity 92    
Minimum Humidity 10    
Precipitation  
Precipitation 0.00 in 0.06 in 0.92 in (2002)
Month to date precipitation 1.05 1.37  
Year to date precipitation 2.53 6.41  
Sea Level Pressure  
Sea Level Pressure 30.10 in    
Wind  
Wind Speed 11 mph (NNW)    
Max Wind Speed 25 mph    
Max Gust Speed 30 mph    
Visibility 10 miles    
Events      
T = Trace of Precipitation, MM = Missing Value Source: NWS Daily Summary

Daily Weather History Graph

Daily Weather History Graph

Search for Another Location

Airport or City:

Trip Planner

Search our weather history database for the weather conditions in past years. The results will help you decide how hot, cold, wet, or windy it might be!

Date:

Astronomy

Apr. 30, 2013 Rise Set
Actual Time 6:03 AM PDT 8:05 PM PDT
Civil Twilight 5:33 AM PDT 8:35 PM PDT
Nautical Twilight 4:55 AM PDT 9:13 PM PDT
Astronomical Twilight 4:15 AM PDT 9:54 PM PDT
Moon 12:34 AM PDT (4/30) 10:37 AM PDT (4/30)
Length of Visible Light 15h 02m
Length of Day
14h 01m
Waning Gibbous, 69% of the Moon is Illuminated
Apr 30
Waning Gibbous
May 2
Last Quarter
May 9
New
May 17
First Quarter
May 24
Full

Hourly Weather History & Observations

Time (PDT) Temp. Windchill Dew Point Humidity Pressure Visibility Wind Dir Wind Speed Gust Speed Precip Events Conditions
12:53 AM 36.0 °F - 28.9 °F 76% 29.99 in 10.0 mi Calm Calm - N/A   Clear
1:53 AM 35.1 °F 31.0 °F 28.0 °F 76% 30.00 in 10.0 mi WNW 4.6 mph - N/A   Clear
2:53 AM 32.0 °F 28.7 °F 28.0 °F 85% 30.01 in 10.0 mi South 3.5 mph - N/A   Clear
3:53 AM 33.1 °F 28.7 °F 28.0 °F 82% 30.01 in 10.0 mi ESE 4.6 mph - N/A   Clear
4:53 AM 33.1 °F 30.0 °F 27.0 °F 78% 30.02 in 10.0 mi West 3.5 mph - N/A   Clear
5:53 AM 27.0 °F - 25.0 °F 92% 30.06 in 10.0 mi Calm Calm - N/A   Clear
6:53 AM 30.0 °F - 26.1 °F 85% 30.08 in 10.0 mi Calm Calm - N/A   Clear
7:53 AM 37.9 °F 35.5 °F 23.0 °F 55% 30.09 in 10.0 mi ESE 3.5 mph - N/A   Clear
8:53 AM 44.1 °F 39.5 °F 10.0 °F 25% 30.09 in 10.0 mi NNW 8.1 mph - N/A   Clear
9:53 AM 46.9 °F - -0.0 °F 14% 30.09 in 10.0 mi North 11.5 mph - N/A   Clear
10:53 AM 46.9 °F - 9.0 °F 21% 30.10 in 10.0 mi NW 13.8 mph 20.7 mph N/A   Clear
11:53 AM 52.0 °F - 10.0 °F 19% 30.08 in 10.0 mi NW 16.1 mph - N/A   Clear
12:53 PM 54.0 °F - 5.0 °F 14% 30.08 in 10.0 mi NW 17.3 mph 24.2 mph N/A   Clear
1:53 PM 57.0 °F - 3.9 °F 12% 30.09 in 10.0 mi NW 18.4 mph 25.3 mph N/A   Clear
2:53 PM 57.0 °F - 1.9 °F 11% 30.10 in 10.0 mi NW 16.1 mph 28.8 mph N/A   Clear
3:53 PM 57.9 °F - 5.0 °F 12% 30.09 in 10.0 mi NW 20.7 mph 29.9 mph N/A   Partly Cloudy
4:53 PM 57.9 °F - 8.1 °F 14% 30.10 in 10.0 mi NW 23.0 mph 28.8 mph N/A   Clear
5:53 PM 55.9 °F - 7.0 °F 14% 30.13 in 10.0 mi NNW 20.7 mph 27.6 mph N/A   Clear
6:53 PM 54.0 °F - 6.1 °F 15% 30.15 in 10.0 mi NNW 17.3 mph 24.2 mph N/A   Clear
7:53 PM 50.0 °F - 7.0 °F 18% 30.16 in 10.0 mi NNW 17.3 mph - N/A   Clear
8:53 PM 42.1 °F 37.1 °F 12.9 °F 31% 30.19 in 10.0 mi North 8.1 mph - N/A   Clear
10:53 PM 39.9 °F 36.7 °F 12.9 °F 33% 30.25 in 10.0 mi SE 4.6 mph - N/A   Clear
11:53 PM 41.0 °F - 15.1 °F 35% 30.26 in 10.0 mi Calm Calm - N/A   Clear